Time,TemperatureF,DewpointF,PressureIn,WindDirection,WindDirectionDegrees,WindSpeedMPH,WindSpeedGustMPH,Humidity,HourlyPrecipIn,Conditions,Clouds,dailyrainin,SoftwareType,DateUTC
2014-12-18 00:04:00,34.5,28.0,29.87,NW,321,0.0,3.0,77,0.00,,,0.00,meteobridge,2014-12-18 05:04:00,
2014-12-18 00:10:00,34.5,28.0,29.86,NNW,348,0.9,2.0,77,0.00,,,0.00,meteobridge,2014-12-18 05:10:00,
2014-12-18 00:16:00,34.3,27.9,29.86,North,11,4.0,4.0,77,0.00,,,0.00,meteobridge,2014-12-18 05:16:00,
2014-12-18 00:22:00,34.3,27.9,29.86,WNW,283,2.0,3.0,77,0.00,,,0.00,meteobridge,2014-12-18 05:22:00,
2014-12-18 00:28:00,34.2,27.7,29.86,East,85,0.0,1.0,77,0.00,,,0.00,meteobridge,2014-12-18 05:28:00,
2014-12-18 00:34:00,34.0,27.5,29.86,East,89,2.0,3.0,77,0.00,,,0.00,meteobridge,2014-12-18 05:34:00,
2014-12-18 00:40:00,34.0,27.5,29.86,NNE,14,2.0,4.0,77,0.00,,,0.00,meteobridge,2014-12-18 05:40:00,
2014-12-18 00:46:00,34.0,27.5,29.86,NNE,15,0.0,1.0,77,0.00,,,0.00,meteobridge,2014-12-18 05:46:00,
2014-12-18 00:52:00,33.8,27.3,29.86,NNE,20,0.9,3.0,77,0.00,,,0.00,meteobridge,2014-12-18 05:52:00,
2014-12-18 00:58:00,33.6,27.1,29.86,ENE,63,0.9,5.0,77,0.00,,,0.00,meteobridge,2014-12-18 05:58:00,
2014-12-18 01:04:00,33.6,27.1,29.86,ENE,77,0.9,2.0,77,0.00,,,0.00,meteobridge,2014-12-18 06:04:00,
2014-12-18 01:10:00,33.6,27.1,29.86,SE,146,0.0,1.0,77,0.00,,,0.00,meteobridge,2014-12-18 06:10:00,
2014-12-18 01:16:00,33.6,27.1,29.86,WNW,287,0.9,2.0,77,0.00,,,0.00,meteobridge,2014-12-18 06:16:00,
2014-12-18 01:22:00,33.6,27.1,29.87,WNW,293,0.9,4.0,77,0.00,,,0.00,meteobridge,2014-12-18 06:22:00,
2014-12-18 01:28:00,33.6,27.1,29.87,West,277,0.9,4.0,77,0.00,,,0.00,meteobridge,2014-12-18 06:28:00,
2014-12-18 01:34:00,33.4,27.0,29.87,WSW,243,0.9,3.0,77,0.00,,,0.00,meteobridge,2014-12-18 06:34:00,
2014-12-18 01:40:00,33.4,27.0,29.87,North,8,0.0,2.0,77,0.00,,,0.00,meteobridge,2014-12-18 06:40:00,
2014-12-18 01:46:00,33.4,27.0,29.88,West,276,0.9,6.0,77,0.00,,,0.00,meteobridge,2014-12-18 06:46:00,
2014-12-18 01:52:00,33.4,27.3,29.88,WSW,255,0.0,3.0,78,0.00,,,0.00,meteobridge,2014-12-18 06:52:00,
2014-12-18 01:58:00,33.4,27.3,29.88,ENE,71,0.0,2.0,78,0.00,,,0.00,meteobridge,2014-12-18 06:58:00,
2014-12-18 02:04:00,33.4,27.3,29.89,NE,53,2.0,4.0,78,0.00,,,0.00,meteobridge,2014-12-18 07:04:00,
2014-12-18 02:10:00,33.6,27.5,29.89,North,11,2.0,3.0,78,0.00,,,0.00,meteobridge,2014-12-18 07:10:00,
2014-12-18 02:16:00,33.6,27.5,29.89,WSW,245,2.0,3.0,78,0.00,,,0.00,meteobridge,2014-12-18 07:16:00,
2014-12-18 02:22:00,33.4,27.7,29.89,West,262,0.9,5.0,79,0.00,,,0.00,meteobridge,2014-12-18 07:22:00,
2014-12-18 02:28:00,33.4,27.9,29.90,WSW,248,2.9,3.0,80,0.00,,,0.00,meteobridge,2014-12-18 07:28:00,
2014-12-18 02:34:00,33.3,27.7,29.90,ENE,59,4.0,5.0,80,0.00,,,0.00,meteobridge,2014-12-18 07:34:00,
2014-12-18 02:40:00,33.3,28.0,29.90,WNW,284,0.9,3.0,81,0.00,,,0.00,meteobridge,2014-12-18 07:40:00,
2014-12-18 02:46:00,33.1,27.9,29.90,East,89,4.9,5.0,81,0.00,,,0.00,meteobridge,2014-12-18 07:46:00,
2014-12-18 02:52:00,33.1,27.9,29.90,WNW,297,0.9,5.0,81,0.00,,,0.00,meteobridge,2014-12-18 07:52:00,
2014-12-18 02:58:00,32.9,27.7,29.90,West,280,0.0,4.0,81,0.00,,,0.00,meteobridge,2014-12-18 07:58:00,
2014-12-18 03:04:00,32.7,27.5,29.90,North,10,2.0,4.0,81,0.00,,,0.00,meteobridge,2014-12-18 08:04:00,
2014-12-18 03:10:00,32.7,27.5,29.90,NE,54,4.0,4.0,81,0.00,,,0.00,meteobridge,2014-12-18 08:10:00,
2014-12-18 03:16:00,32.7,27.5,29.90,SW,226,0.0,1.0,81,0.00,,,0.00,meteobridge,2014-12-18 08:16:00,
2014-12-18 03:22:00,32.5,27.3,29.89,NE,43,0.0,2.0,81,0.00,,,0.00,meteobridge,2014-12-18 08:22:00,
2014-12-18 03:28:00,32.5,27.1,29.90,West,278,2.0,5.0,80,0.00,,,0.00,meteobridge,2014-12-18 08:28:00,
2014-12-18 03:35:00,32.5,27.1,29.89,NW,317,0.9,5.0,80,0.00,,,0.00,meteobridge,2014-12-18 08:35:00,
2014-12-18 03:41:00,32.4,26.6,29.89,NW,307,0.9,6.0,79,0.00,,,0.00,meteobridge,2014-12-18 08:41:00,
2014-12-18 03:47:00,32.4,26.6,29.89,WNW,303,2.0,13.0,79,0.00,,,0.00,meteobridge,2014-12-18 08:47:00,
2014-12-18 03:53:00,32.2,26.1,29.89,ESE,103,2.0,4.0,78,0.00,,,0.00,meteobridge,2014-12-18 08:53:00,
2014-12-18 03:59:00,32.2,26.1,29.89,WSW,239,0.0,3.0,78,0.00,,,0.00,meteobridge,2014-12-18 08:59:00,
2014-12-18 04:05:00,32.0,25.7,29.89,North,350,4.0,11.0,77,0.00,,,0.00,meteobridge,2014-12-18 09:05:00,
2014-12-18 04:11:00,32.0,25.3,29.90,WSW,240,0.9,9.0,76,0.00,,,0.00,meteobridge,2014-12-18 09:11:00,
2014-12-18 04:17:00,32.2,25.5,29.90,WSW,257,0.9,5.0,76,0.00,,,0.00,meteobridge,2014-12-18 09:17:00,
2014-12-18 04:23:00,32.2,25.5,29.90,WNW,284,0.0,6.0,76,0.00,,,0.00,meteobridge,2014-12-18 09:23:00,
2014-12-18 04:29:00,32.4,25.3,29.90,NE,43,0.9,5.0,75,0.00,,,0.00,meteobridge,2014-12-18 09:29:00,
2014-12-18 04:35:00,32.4,25.3,29.90,West,262,0.0,1.0,75,0.00,,,0.00,meteobridge,2014-12-18 09:35:00,
2014-12-18 04:41:00,32.4,25.3,29.90,West,259,0.0,3.0,75,0.00,,,0.00,meteobridge,2014-12-18 09:41:00,
2014-12-18 04:47:00,32.4,25.0,29.90,WNW,297,0.9,5.0,74,0.00,,,0.00,meteobridge,2014-12-18 09:47:00,
2014-12-18 04:53:00,32.4,24.6,29.90,North,11,2.0,5.0,73,0.00,,,0.00,meteobridge,2014-12-18 09:53:00,
2014-12-18 04:59:00,32.4,24.6,29.90,ENE,60,2.0,2.0,73,0.00,,,0.00,meteobridge,2014-12-18 09:59:00,
2014-12-18 05:05:00,32.4,24.3,29.90,West,276,0.9,6.0,72,0.00,,,0.00,meteobridge,2014-12-18 10:05:00,
2014-12-18 05:11:00,32.4,24.3,29.91,West,259,0.9,2.0,72,0.00,,,0.00,meteobridge,2014-12-18 10:11:00,
2014-12-18 05:17:00,32.4,24.1,29.91,East,87,0.0,2.0,71,0.00,,,0.00,meteobridge,2014-12-18 10:17:00,
2014-12-18 05:23:00,32.2,23.9,29.91,NW,315,0.9,4.0,71,0.00,,,0.00,meteobridge,2014-12-18 10:23:00,
2014-12-18 05:29:00,32.2,23.9,29.91,WSW,249,0.9,6.0,71,0.00,,,0.00,meteobridge,2014-12-18 10:29:00,
2014-12-18 05:35:00,32.2,23.9,29.91,North,356,6.0,9.0,71,0.00,,,0.00,meteobridge,2014-12-18 10:35:00,
2014-12-18 05:41:00,32.2,23.5,29.91,WNW,284,2.0,4.0,70,0.00,,,0.00,meteobridge,2014-12-18 10:41:00,
2014-12-18 05:47:00,32.4,23.7,29.92,NE,37,2.0,2.0,70,0.00,,,0.00,meteobridge,2014-12-18 10:47:00,
2014-12-18 05:53:00,32.4,23.7,29.92,WSW,240,0.0,1.0,70,0.00,,,0.00,meteobridge,2014-12-18 10:53:00,
2014-12-18 05:59:00,32.4,23.7,29.92,ENE,60,2.0,2.0,70,0.00,,,0.00,meteobridge,2014-12-18 10:59:00,
2014-12-18 06:05:00,32.2,23.5,29.93,SW,225,0.9,4.0,70,0.00,,,0.00,meteobridge,2014-12-18 11:05:00,
2014-12-18 06:11:00,32.4,23.7,29.93,ENE,76,0.9,3.0,70,0.00,,,0.00,meteobridge,2014-12-18 11:11:00,
2014-12-18 06:17:00,32.2,23.5,29.93,East,84,2.9,4.0,70,0.00,,,0.00,meteobridge,2014-12-18 11:17:00,
2014-12-18 06:23:00,32.2,23.5,29.93,ENE,72,0.9,2.0,70,0.00,,,0.00,meteobridge,2014-12-18 11:23:00,
2014-12-18 06:29:00,32.2,23.5,29.93,North,4,2.0,11.0,70,0.00,,,0.00,meteobridge,2014-12-18 11:29:00,
2014-12-18 06:35:00,32.4,23.7,29.93,SSW,211,0.0,9.0,70,0.00,,,0.00,meteobridge,2014-12-18 11:35:00,
2014-12-18 06:41:00,32.4,23.7,29.93,SSW,197,0.9,6.0,70,0.00,,,0.00,meteobridge,2014-12-18 11:41:00,
2014-12-18 06:47:00,32.2,23.5,29.93,NW,325,0.9,6.0,70,0.00,,,0.00,meteobridge,2014-12-18 11:47:00,
2014-12-18 06:53:00,32.2,23.5,29.93,East,93,4.0,11.0,70,0.00,,,0.00,meteobridge,2014-12-18 11:53:00,
2014-12-18 06:59:00,32.2,23.5,29.93,WSW,256,2.0,7.0,70,0.00,,,0.00,meteobridge,2014-12-18 11:59:00,
2014-12-18 07:05:00,32.2,23.9,29.93,WSW,256,2.9,7.0,71,0.00,,,0.00,meteobridge,2014-12-18 12:05:00,
2014-12-18 07:11:00,32.2,23.9,29.93,NE,36,0.9,8.0,71,0.00,,,0.00,meteobridge,2014-12-18 12:11:00,
2014-12-18 07:17:00,32.2,23.9,29.93,West,259,0.9,5.0,71,0.00,,,0.00,meteobridge,2014-12-18 12:17:00,
2014-12-18 07:23:00,32.0,23.7,29.93,NNE,16,4.0,5.0,71,0.00,,,0.00,meteobridge,2014-12-18 12:23:00,
2014-12-18 07:29:00,32.0,23.7,29.94,NE,37,4.0,5.0,71,0.00,,,0.00,meteobridge,2014-12-18 12:29:00,
2014-12-18 07:35:00,32.0,24.1,29.94,East,88,4.0,5.0,72,0.00,,,0.00,meteobridge,2014-12-18 12:35:00,
2014-12-18 07:41:00,32.0,23.7,29.94,NW,322,0.0,6.0,71,0.00,,,0.00,meteobridge,2014-12-18 12:41:00,
2014-12-18 07:47:00,31.8,23.9,29.94,NE,53,0.9,9.0,72,0.00,,,0.00,meteobridge,2014-12-18 12:47:00,
2014-12-18 07:53:00,31.8,23.9,29.94,NNE,23,0.9,6.0,72,0.00,,,0.00,meteobridge,2014-12-18 12:53:00,
2014-12-18 07:59:00,31.8,23.9,29.94,East,99,0.9,6.0,72,0.00,,,0.00,meteobridge,2014-12-18 12:59:00,
2014-12-18 08:05:00,31.8,23.9,29.94,North,0,4.0,4.0,72,0.00,,,0.00,meteobridge,2014-12-18 13:05:00,
2014-12-18 08:11:00,31.8,23.9,29.94,North,0,2.9,5.0,72,0.00,,,0.00,meteobridge,2014-12-18 13:11:00,
2014-12-18 08:17:00,32.0,24.1,29.95,ENE,77,2.0,7.0,72,0.00,,,0.00,meteobridge,2014-12-18 13:17:00,
2014-12-18 08:23:00,32.0,24.1,29.95,NE,51,2.0,7.0,72,0.00,,,0.00,meteobridge,2014-12-18 13:23:00,
2014-12-18 08:29:00,32.2,24.3,29.96,West,269,0.9,5.0,72,0.00,,,0.00,meteobridge,2014-12-18 13:29:00,
2014-12-18 08:35:00,32.2,24.3,29.95,ESE,117,2.0,5.0,72,0.00,,,0.00,meteobridge,2014-12-18 13:35:00,
2014-12-18 08:41:00,32.4,24.3,29.95,SW,231,0.9,7.0,72,0.00,,,0.00,meteobridge,2014-12-18 13:41:00,
2014-12-18 08:47:00,32.2,24.3,29.95,West,266,2.9,10.0,72,0.00,,,0.00,meteobridge,2014-12-18 13:47:00,
2014-12-18 08:53:00,32.7,25.0,29.96,WSW,250,0.0,8.0,73,0.00,,,0.00,meteobridge,2014-12-18 13:53:00,
2014-12-18 08:59:00,33.6,25.2,29.96,NNE,18,4.9,6.0,71,0.00,,,0.00,meteobridge,2014-12-18 13:59:00,
2014-12-18 09:05:00,34.0,24.8,29.96,WNW,287,2.9,6.0,69,0.00,,,0.00,meteobridge,2014-12-18 14:05:00,
2014-12-18 09:11:00,34.2,25.0,29.96,ENE,64,6.0,6.0,69,0.00,,,0.00,meteobridge,2014-12-18 14:11:00,
2014-12-18 09:17:00,34.2,25.0,29.97,NE,37,6.9,11.0,69,0.00,,,0.00,meteobridge,2014-12-18 14:17:00,
2014-12-18 09:23:00,34.3,24.8,29.97,North,4,0.9,8.0,68,0.00,,,0.00,meteobridge,2014-12-18 14:23:00,
2014-12-18 09:29:00,34.3,25.2,29.97,WSW,250,4.9,5.0,69,0.00,,,0.00,meteobridge,2014-12-18 14:29:00,
2014-12-18 09:35:00,34.2,25.0,29.98,SW,226,2.0,5.0,69,0.00,,,0.00,meteobridge,2014-12-18 14:35:00,
2014-12-18 09:41:00,34.2,25.0,29.98,NE,46,2.0,6.0,69,0.00,,,0.00,meteobridge,2014-12-18 14:41:00,
2014-12-18 09:47:00,34.0,24.8,29.97,WNW,299,2.9,6.0,69,0.00,,,0.00,meteobridge,2014-12-18 14:47:00,
2014-12-18 09:53:00,34.0,25.2,29.97,NNW,347,0.9,7.0,70,0.00,,,0.00,meteobridge,2014-12-18 14:53:00,
2014-12-18 09:59:00,34.0,25.2,29.97,NE,47,4.0,5.0,70,0.00,,,0.00,meteobridge,2014-12-18 14:59:00,